This is the latest recevied weather packets stored in our database for station/object AB4KN. If no packets are shown the sender has not sent any weather packets the latest 10 day(s).
| Time | Temp. | Humidity | Pressure | Rain* | Wind** | Luminosity | Snow |
|---|---|---|---|---|---|---|---|
| 1777983020 | 12.78° C | 79% | 1020.6 hPa | 0 mm | - | 10 W/m² | - |
| 1777982716 | 12.78° C | 79% | 1020.7 hPa | 0 mm | - | 12 W/m² | - |
| 1777982412 | 12.78° C | 79% | 1020.4 hPa | 0 mm | - | 12 W/m² | - |
| 1777982107 | 12.78° C | 79% | 1020.4 hPa | 0 mm | - | 10 W/m² | - |
| 1777981805 | 12.22° C | 79% | 1020.2 hPa | 0 mm | - | 7 W/m² | - |
| 1777981501 | 12.22° C | 79% | 1020.1 hPa | 0 mm | - | 6 W/m² | - |
| 1777981198 | 12.22° C | 79% | 1020 hPa | 0 mm | - | 8 W/m² | - |
| 1777980894 | 12.22° C | 79% | 1020.2 hPa | 0 mm | - | 10 W/m² | - |
| 1777980590 | 12.22° C | 79% | 1020.2 hPa | 0 mm | - | 9 W/m² | - |
| 1777980287 | 12.22° C | 79% | 1020 hPa | 0 mm | - | 5 W/m² | - |
| 1777979984 | 12.22° C | 79% | 1020.1 hPa | 0 mm | - | 6 W/m² | - |
| 1777979678 | 12.22° C | 79% | 1020.1 hPa | 0 mm | - | 7 W/m² | - |
| 1777979375 | 12.22° C | 78% | 1020.1 hPa | 0 mm | - | 4 W/m² | - |
| 1777979072 | 12.22° C | 78% | 1019.9 hPa | 0 mm | - | 3 W/m² | - |
| 1777978768 | 12.22° C | 77% | 1019.8 hPa | 0 mm | - | 2 W/m² | - |
| 1777978465 | 12.22° C | 78% | 1020 hPa | 0 mm | - | 0 W/m² | - |
| 1777978161 | 12.22° C | 77% | 1020.1 hPa | 0 mm | - | 0 W/m² | - |
| 1777977858 | 12.22° C | 76% | 1020.2 hPa | 0 mm | - | 0 W/m² | - |
| 1777977555 | 12.22° C | 76% | 1020.2 hPa | 0 mm | - | 0 W/m² | - |
| 1777977253 | 12.22° C | 76% | 1020 hPa | 0 mm | - | 0 W/m² | - |
| 1777976949 | 12.22° C | 76% | 1020 hPa | 0 mm | - | 0 W/m² | - |
| 1777976647 | 12.22° C | 76% | 1020.2 hPa | 0 mm | - | 0 W/m² | - |
| 1777976343 | 12.78° C | 75% | 1020.1 hPa | 0 mm | - | 0 W/m² | - |
| 1777976037 | 12.78° C | 73% | 1020.2 hPa | 0 mm | - | 0 W/m² | - |
| 1777975734 | 12.78° C | 72% | 1020.2 hPa | 0 mm | - | 0 W/m² | - |
* Rain latest hour (hover to see other rain measurements)
** Current wind speed in m/s (hover to see current wind gust speed)